2023/02/22 00:00:00,101.8,-3.8
2023/02/22 00:10:00,101.8,-4.0
2023/02/22 00:20:00,101.8,-3.9
2023/02/22 00:30:00,101.8,-3.8
2023/02/22 00:40:00,101.8,-3.6
2023/02/22 00:50:00,101.7,-3.5
2023/02/22 01:00:00,101.7,-3.2
2023/02/22 01:10:00,101.7,-3.1
2023/02/22 01:20:00,101.7,-3.0
2023/02/22 01:30:00,101.6,-2.9
2023/02/22 01:40:00,101.6,-3.0
2023/02/22 01:50:00,101.6,-2.7
2023/02/22 02:00:00,101.6,-2.5
2023/02/22 02:10:00,101.5,-2.8
2023/02/22 02:20:00,101.5,-2.8
2023/02/22 02:30:00,101.4,-2.6
2023/02/22 02:40:00,101.4,-2.7
2023/02/22 02:50:00,101.4,-2.6
2023/02/22 03:00:00,101.4,-2.8
2023/02/22 03:10:00,101.3,-3.1
2023/02/22 03:20:00,101.4,-2.4
2023/02/22 03:30:00,101.4,-2.6
2023/02/22 03:40:00,101.4,-2.6
2023/02/22 03:50:00,101.3,-2.6
2023/02/22 04:00:00,101.2,-2.5
2023/02/22 04:10:00,101.2,-2.5
2023/02/22 04:20:00,101.2,-2.5
2023/02/22 04:30:00,101.1,-2.6
2023/02/22 04:40:00,101.1,-2.4
2023/02/22 04:50:00,101.1,-2.5
2023/02/22 05:00:00,101.1,-2.0
2023/02/22 05:10:00,101.1,-2.2
2023/02/22 05:20:00,101.0,-2.2
2023/02/22 05:30:00,101.0,-2.3
2023/02/22 05:40:00,100.9,-2.3
2023/02/22 05:50:00,100.8,-2.4
2023/02/22 06:00:00,100.8,-2.3
2023/02/22 06:10:00,100.7,-2.2
2023/02/22 06:20:00,100.6,-2.2
2023/02/22 06:30:00,100.6,-2.1
2023/02/22 06:40:00,100.6,-2.2
2023/02/22 06:50:00,100.6,-2.1
2023/02/22 07:00:00,100.6,-2.0
2023/02/22 07:10:00,100.6,-1.9
2023/02/22 07:20:00,100.6,-1.8
2023/02/22 07:30:00,100.6,-1.4
2023/02/22 07:40:00,100.7,-1.2
2023/02/22 07:50:00,100.7,-1.1
2023/02/22 08:00:00,100.7,-0.7
2023/02/22 08:10:00,100.6,-0.6
2023/02/22 08:20:00,100.6,-0.2
2023/02/22 08:30:00,100.6, 0.3
2023/02/22 08:40:00,100.6, 0.7
2023/02/22 08:50:00,100.5, 0.6
2023/02/22 09:00:00,100.5, 1.1
2023/02/22 09:10:00,100.4, 1.7
2023/02/22 09:20:00,100.3, 2.3
2023/02/22 09:30:00,100.2, 2.9
2023/02/22 09:40:00,100.2, 3.0
2023/02/22 09:50:00,100.3, 4.3
2023/02/22 10:00:00,100.2, 4.9
2023/02/22 10:10:00,100.1, 4.7
2023/02/22 10:20:00,100.0, 5.7
2023/02/22 10:30:00,100.0, 7.1
2023/02/22 10:40:00,100.0, 4.1
2023/02/22 10:50:00,99.9, 3.8
2023/02/22 11:00:00,99.8, 3.9
2023/02/22 11:10:00,99.8, 4.6
2023/02/22 11:20:00,99.8, 4.5
2023/02/22 11:30:00,99.9, 5.4
2023/02/22 11:40:00,99.7, 5.8
2023/02/22 11:50:00,99.5, 6.4
2023/02/22 12:00:00,99.5, 6.9
2023/02/22 12:10:00,99.2, 6.2
2023/02/22 12:20:00,99.2, 6.2
2023/02/22 12:30:00,98.5, 8.7
2023/02/22 12:40:00,97.5, 9.1
2023/02/22 12:50:00,97.3, 9.4
2023/02/22 13:00:00,97.1,11.7
2023/02/22 13:10:00,97.0,13.2
2023/02/22 13:20:00,96.6,16.6
2023/02/22 13:30:00,95.5,15.7
2023/02/22 13:40:00,95.1,16.8
2023/02/22 13:50:00,94.7,13.8
2023/02/22 14:00:00,94.2,11.6
2023/02/22 14:10:00,94.3,16.1
2023/02/22 14:20:00,94.1,19.0
2023/02/22 14:30:00,93.4,16.6
2023/02/22 14:40:00,93.2,13.9
2023/02/22 14:50:00,92.9,14.5
2023/02/22 15:00:00,92.7,15.8
2023/02/22 15:10:00,92.5,15.5
2023/02/22 15:20:00,92.4,13.8
2023/02/22 15:30:00,92.1,14.2
2023/02/22 15:40:00,92.0,12.4
2023/02/22 15:50:00,91.9,15.2
2023/02/22 16:00:00,91.8,16.4
2023/02/22 16:10:00,91.6,14.7
2023/02/22 16:20:00,91.4, 9.9
2023/02/22 16:30:00,91.3,10.1
2023/02/22 16:40:00,91.3, 8.3
2023/02/22 16:50:00,91.3,11.6
2023/02/22 17:00:00,91.2, 8.7
2023/02/22 17:10:00,91.0, 5.6
2023/02/22 17:20:00,91.0, 3.4
2023/02/22 17:30:00,91.0, 2.3
2023/02/22 17:40:00,90.9, 1.5
2023/02/22 17:50:00,90.9, 0.6
2023/02/22 18:00:00,90.9, 0.3
2023/02/22 18:10:00,90.9,-0.2
2023/02/22 18:20:00,90.9,-0.7
2023/02/22 18:30:00,90.9,-1.1
2023/02/22 18:40:00,90.9,-1.2
2023/02/22 18:50:00,90.9,-1.5
2023/02/22 19:00:00,90.8,-1.4
2023/02/22 19:10:00,90.9,-1.2
2023/02/22 19:20:00,90.8,-1.6
2023/02/22 19:30:00,90.8,-1.3
2023/02/22 19:40:00,90.8,-0.7
2023/02/22 19:50:00,90.8,-1.3
2023/02/22 20:00:00,90.8,-1.4
2023/02/22 20:10:00,90.8,-1.2
2023/02/22 20:20:00,90.8,-1.2
2023/02/22 20:30:00,90.8,-1.4
2023/02/22 20:40:00,90.8,-1.4
2023/02/22 20:50:00,90.7,-1.7
2023/02/22 21:00:00,90.6,-1.6
2023/02/22 21:10:00,90.5,-1.5
2023/02/22 21:20:00,90.4,-2.0
2023/02/22 21:30:00,90.4,-1.4
2023/02/22 21:40:00,90.3,-1.5
2023/02/22 21:50:00,90.3,-1.6
2023/02/22 22:00:00,90.2,-1.5
2023/02/22 22:10:00,90.1,-1.6
2023/02/22 22:20:00,90.1,-1.9
2023/02/22 22:30:00,90.1,-1.7
2023/02/22 22:40:00,90.0,-2.0
2023/02/22 22:50:00,90.0,-2.1
2023/02/22 23:00:00,90.0,-1.9
2023/02/22 23:10:00,89.9,-1.5
2023/02/22 23:20:00,89.9,-1.5
2023/02/22 23:30:00,89.8,-1.5
2023/02/22 23:40:00,89.7,-1.2
2023/02/22 23:50:00,89.7,-1.1
